Погода в Караганде

Погода в Караганде : погода сейчас, прогноз погоды и архив. Всё, что Вы хотите узнать о погоде в Караганде!

Поиск расширенной информации на нашем сайте:

Другие новости

Новости СМИ2

Главная страница сайта

Новости сайта

03.07.2017

Напоминаем, что на нашем специализированном сайте Метеоцентр.Азия вы можете получить высокодетализированные автоматические прогнозы погоды по пунктам России, СНГ и мира в авиационном формате (включающие направление и скорость ветра, видимость, явления погоды, количество и форму облачности, нижнюю и верхнюю границу облачности).


Погода в Караганде - сегодня

Время (UTC), дата Ветер
(°,м/с) 
Видим.   Явления Облачность Т
(°С)
Тd
(°С)
f(%) Тe
(°С)
Pmin
(гПа)
dP
(гПа)
Po
(мм)
O2
(г/м3)
Тmin Tmax R s Состояние
почвы
12 20.08.17 350 (С) 20000 м    8/6 1000 м средняя 
[Sc|Ac trans]
+19.4 +2.5 32 +20  1022.4  -0.2  719  270           
15 20.08.17 тихо ()   20000 м    6/3 1000 м средняя 
[Sc|Ac trans]
+15.4 +4 46 +15  1023.7  0.3  720  274    +20.6       
18 20.08.17 100 (В) 20000 м    ясно 
+10.5 +4.1 65 +12  1025.2  0.4  720  279    +20.6       
21 20.08.17 тихо ()   20000 м    ясно 
+7.1 +4.2 82 +7  1025.4  -0.5  720  282           
00 21.08.17 тихо ()   20000 м    ясно 
+5.9 +4.3 89 +6  1026  0.2  720  283           
03 21.08.17 тихо ()   20000 м    3/0 верхняя 
[Ci fib]
+14.8 +5.3 53 +15  1024.6  0.7  720  274  +5        сухая 
06 21.08.17 030 (СВ) 20000 м    3/3 1000 м верхняя 
[Cu med, cong|Ci fib]
+20.8 +3.2 31 +21  1023  -0.2  720  269  +5         
09 21.08.17 120 (ЮВ) 20000 м    6/5 1000 м верхняя 
[Cu med, cong|Ci fib]
+23.1 +3.2 27 +23  1021.6  -1  719  267           
12 21.08.17 080 (В) 20000 м    6/4 600 м кучево-дожд., средняя 
[Cb cap|Ac trans]
+23 +3.3 28 +23  1021.2  -0.3  719  267           
15 21.08.17 060 (СВ) 20000 м    1/0 средняя 
[Ac lent]
+16.5 +6.3 51 +18  1022.7  0.1  719  272    +24       
18 21.08.17 тихо ()   20000 м    ясно 
+12 +5.7 65 +12  1023.7  719  277    +24       
21 21.08.17 010 (С) 20000 м    ясно 
+9.3 +5.2 76 +10  1024.2  -0.2  719  279           
00 22.08.17 020 (С) 20000 м    ясно 
+8.9 +6.1 83 +10  1024.7  0.4  719  280           
03 22.08.17 010 (С) 20000 м    3/0 верхняя 
[Ci fib]
+18 +7.5 50 +19  1023.4  0.8  720  271  +8.9        сухая 
06 22.08.17 020 (С) 20000 м    8/8 1000 м 
[Cu med, cong]
+22.5 +7.7 39 +23  1022.5  0.1  720  267  +8.9         
09 22.08.17 040 (СВ) 20000 м    8/8 1000 м 
[Cu med, cong]
+23.6 +4.1 28 +24  1021.2  -1.1  719  266           
12 22.08.17 050 (СВ) 20000 м    8/4 1000 м средняя 
[Cu hum|Ac cast]
+24 +5.7 31 +24  1020.6  -0.4  719  265           
15 22.08.17 050 (СВ) 20000 м    ясно 
+18.6 +7.4 48 +20  1022.2  0.4  719  270    +25       
18 22.08.17 020 (С) 20000 м    ясно 
+15.4 +6.6 56 +17  1023.4  0.4  719  273    +25       
21 22.08.17 010 (С) 20000 м    ясно 
+10.8 +7.1 78 +12  1025  0.5  720  278           
00 23.08.17 тихо ()   20000 м    ясно 
+10.8 +7.1 78 +11  1025.2  0.2  720  278           
03 23.08.17 350 (С) 20000 м    ясно 
+18.4 +8.3 52 +19  1024.9  1.4  721  271           
06 23.08.17 040 (СВ) 20000 м    1/1 1000 м 
[Cu hum]
+24.8 +6.1 30 +25  1023.4  -0.1  721  265  +9.8         
09 23.08.17 010 (С) 20000 м    4/4 1000 м 
[Cu hum]
+26.3 +7.7 31 +26  1022.2  -0.8  720  263           
12 23.08.17 050 (СВ) 20000 м    3/3 1000 м средняя 
[Cu hum|Ac trans]
+25.7 +9.4 36 +27  1022.4  720  264           
Время (UTC), дата Ветер
(°,м/с) 
Видим.   Явления Облачность Т
(°С)
Тd
(°С)
f(%) Тe
(°С)
Pmin
(гПа)
dP
(гПа)
Po
(мм)
O2
(г/м3)
Тmin Tmax R s Состояние
почвы

Для получения пояснительной информации подведите курсор к названию столбца.

ПОГОДА в Караганде - архив

Всё, что Вы хотите узнать о погоде в Караганде - удобно и подробно!

Выберите нужную дату (начиная с 1 января 2015* года) и нажмите кнопку "Найти".
Будут отображены архивные сводки погоды по пункту Караганда, начиная с указанной даты.


Отображать данные в формате CSV (для использования в таблицах Excel)


Внимание! Наш архив погоды предназначен исключительно для личного некоммерческого использования в познавательных целях. Если Вам необходимы официальные справки о состоянии погоды (для производственных, юридических, коммерческих и т.п. целей), обращайтесь в органы Росгидромета.

*Примечание: данная дата относится к архиву по метеостанциям СССР (Россия, СНГ, Балтия).
Архив по метеостанциям Зарубежной Европы и Азии (кроме Китая) хранится 10 дней, по другим регионам земного шара (Китай, Африка, Америка, Австралия, Океания) - 1 день.

Караганда - район местоположения метеостанции


Название, широта, долгота, высота метеостанции:
Караганда (город) 49.8°ш. 73.2°д. 553 м над ур. моря [Казахстан]

Дополнительная информация

В oтличие oт бoльшинства пoгoдных сайтoв мы публикуем пoдрoбную метеoинфoрмацию в детальнoм прoфессиoнальнoм фoрмате.

Характеристики температуры и влажнoсти вoздуха измеряются на высoте 2 м в тени вдали oт зданий и деревьев.
Скoрoсть ветра измеряется на высoте 10 м (на урoвне рoста челoвека скoрoсть ветра ниже в 1.5-2 раза). Если метеoстанция нахoдится в гoрoде или в лесу, тo скoрoсть ветра занижена на 2-4 м/с пo сравнению с oткрытым местoм. Скoрoсть ветра над акватoриями крупных рек и oзёр, а также на вершинах хoлмoв на 2-5 м/с выше, чем в oбычных услoвиях.
Атмoсфернoе давление в разных тoчках местнoсти мoжет значительнo oтличаться oт давления на метеoстанции, в зависимoсти oт услoвий рельефа (при пoдъёме на 10 м давление пoнижается примернo на 1 мм рт.ст.).